Weather History for K19A - April, 2013

Change the Weather History Date:

Friday, April 5, 2013

  Actual Average (KGVL) Record (KGVL)
Temperature  
Mean Temperature 50 °F 58 °F  
Max Temperature 64 °F 68 °F 86 °F (1969)
Min Temperature 37 °F 47 °F 27 °F (1944)
Degree Days  
Heating Degree Days 14 8  
Month to date heating degree days 42  
Since 1 July heating degree days 2894  
Cooling Degree Days 0 1  
Month to date cooling degree days 3  
Year to date cooling degree days 8  
Moisture  
Dew Point 34 °F    
Average Humidity 63    
Maximum Humidity 100    
Minimum Humidity 28    
Precipitation  
Precipitation 0.00 in 0.11 in 3.32 in (1957)
Month to date precipitation 0.59  
Year to date precipitation 15.91  
Snow  
Snow 0.00 in - - ()
Month to date snowfall  
Since 1 July snowfall  
Snow Depth -    
Sea Level Pressure  
Sea Level Pressure 29.98 in    
Wind  
Wind Speed 1 mph (SSW)    
Max Wind Speed 6 mph    
Max Gust Speed -    
Visibility 9 miles    
Events Rain    
T = Trace of Precipitation, MM = Missing Value Source: NWS Daily Summary

Daily Weather History Graph

Daily Weather History Graph

Search for Another Location

Airport or City:

Trip Planner

Search our weather history database for the weather conditions in past years. The results will help you decide how hot, cold, wet, or windy it might be!

Date:

Astronomy

Apr. 05, 2013 Rise Set
Actual Time 7:15 AM EDT 7:58 PM EDT
Civil Twilight 6:50 AM EDT 8:23 PM EDT
Nautical Twilight 6:20 AM EDT 8:53 PM EDT
Astronomical Twilight 5:50 AM EDT 9:24 PM EDT
Moon 4:09 AM EDT (4/5) 3:32 PM EDT (4/5)
Length of Visible Light 13h 33m
Length of Day
12h 42m
Waning Crescent, 24% of the Moon is Illuminated
Apr 5
Waning Crescent
Apr 10
New
Apr 18
First Quarter
Apr 25
Full
May 2
Last Quarter

Hourly Weather History & Observations

Time (EDT) Temp. Windchill Dew Point Humidity Pressure Visibility Wind Dir Wind Speed Gust Speed Precip Events Conditions
12:15 AM 39.2 °F 37.0 °F 35.6 °F 87% 30.00 in 10.0 mi ESE 3.5 mph - N/A   Overcast
12:35 AM 39.2 °F 37.0 °F 35.6 °F 87% 30.00 in 10.0 mi East 3.5 mph - N/A   Overcast
12:55 AM 39.2 °F - 35.6 °F 87% 30.00 in 10.0 mi Calm Calm - N/A   Overcast
1:15 AM 39.2 °F 37.0 °F 35.6 °F 87% 30.00 in 10.0 mi East 3.5 mph - N/A   Overcast
1:35 AM 39.2 °F 37.0 °F 35.6 °F 87% 29.99 in 10.0 mi East 3.5 mph - N/A   Overcast
1:55 AM 37.4 °F - 35.6 °F 93% 29.98 in 10.0 mi Calm Calm - N/A   Overcast
2:15 AM 39.2 °F - 35.6 °F 87% 29.98 in 10.0 mi Calm Calm - N/A   Overcast
2:35 AM 39.2 °F - 35.6 °F 87% 29.98 in 10.0 mi Calm Calm - N/A   Overcast
2:55 AM 39.2 °F - 35.6 °F 87% 29.97 in 10.0 mi Calm Calm - N/A   Overcast
3:15 AM 39.2 °F - 35.6 °F 87% 29.94 in 10.0 mi Calm Calm - N/A   Overcast
3:35 AM 37.4 °F - 35.6 °F 93% 29.94 in 10.0 mi Calm Calm - N/A   Overcast
3:55 AM 39.2 °F - 35.6 °F 87% 29.94 in 10.0 mi Calm Calm - N/A   Overcast
4:15 AM 39.2 °F - 35.6 °F 87% 29.94 in 10.0 mi Calm Calm - N/A Rain Light Rain
4:35 AM 37.4 °F - 35.6 °F 93% 29.93 in 7.0 mi Calm Calm - N/A   Overcast
4:55 AM 37.4 °F - 35.6 °F 93% 29.93 in 7.0 mi Calm Calm - N/A   Scattered Clouds
5:15 AM 37.4 °F - 37.4 °F 100% 29.93 in 7.0 mi Calm Calm - N/A   Mostly Cloudy
5:35 AM 37.4 °F - 35.6 °F 93% 29.94 in 3.0 mi Calm Calm - N/A   Overcast
5:55 AM 39.2 °F 35.9 °F 37.4 °F 93% 29.96 in 7.0 mi SW 4.6 mph - N/A   Overcast
6:15 AM 39.2 °F 37.0 °F 37.4 °F 93% 29.96 in 5.0 mi SSW 3.5 mph - N/A   Overcast
6:35 AM 39.2 °F - 37.4 °F 93% 29.96 in 5.0 mi Calm Calm - N/A   Light Drizzle
6:55 AM 39.2 °F - 37.4 °F 93% 29.97 in 5.0 mi Calm Calm - N/A   Overcast
7:15 AM 39.2 °F - 37.4 °F 93% 29.96 in 4.0 mi Calm Calm - N/A   Mostly Cloudy
7:35 AM 39.2 °F - 37.4 °F 93% 29.96 in 1.5 mi Calm Calm - N/A   Overcast
7:55 AM 39.2 °F - 37.4 °F 93% 29.97 in 2.5 mi Calm Calm - N/A   Overcast
8:15 AM 39.2 °F - 37.4 °F 93% 29.97 in 3.0 mi Calm Calm - N/A   Overcast
8:35 AM 41.0 °F - 39.2 °F 93% 29.97 in 10.0 mi Calm Calm - N/A   Mostly Cloudy
8:55 AM 42.8 °F - 37.4 °F 81% 29.97 in 10.0 mi Calm Calm - N/A   Mostly Cloudy
9:15 AM 42.8 °F - 39.2 °F 87% 29.98 in 10.0 mi Calm Calm - N/A   Mostly Cloudy
9:35 AM 42.8 °F - 39.2 °F 87% 29.99 in 10.0 mi Calm Calm - N/A   Overcast
9:55 AM 42.8 °F - 41.0 °F 93% 29.99 in 10.0 mi Calm Calm - N/A   Overcast
10:15 AM 44.6 °F - 39.2 °F 81% 30.00 in 10.0 mi Calm Calm - N/A   Overcast
10:35 AM 44.6 °F - 39.2 °F 81% 30.00 in 10.0 mi Calm Calm - N/A   Overcast
10:55 AM 44.6 °F - 39.2 °F 81% 30.01 in 10.0 mi Calm Calm - N/A   Overcast
11:15 AM 46.4 °F - 39.2 °F 76% 30.02 in 10.0 mi Calm Calm - N/A   Overcast
11:35 AM 46.4 °F 45.2 °F 35.6 °F 66% 30.02 in 10.0 mi SSE 3.5 mph - N/A   Overcast
11:55 AM 50.0 °F - 37.4 °F 62% 30.02 in 10.0 mi North 3.5 mph - N/A   Mostly Cloudy
12:15 PM 48.2 °F - 35.6 °F 62% 30.02 in 10.0 mi WSW 3.5 mph - N/A   Mostly Cloudy
12:35 PM 50.0 °F - 35.6 °F 58% 30.02 in 10.0 mi Calm Calm - N/A   Overcast
12:55 PM 51.8 °F - 35.6 °F 54% 30.01 in 10.0 mi Calm Calm - N/A   Scattered Clouds
1:15 PM 53.6 °F - 35.6 °F 51% 30.01 in 10.0 mi Calm Calm - N/A   Scattered Clouds
1:35 PM 55.4 °F - 33.8 °F 44% 30.00 in 10.0 mi Calm Calm - N/A   Mostly Cloudy
1:55 PM 55.4 °F - 33.8 °F 44% 29.99 in 10.0 mi NW 3.5 mph - N/A   Mostly Cloudy
2:15 PM 55.4 °F - 33.8 °F 44% 30.00 in 10.0 mi NNW 4.6 mph - N/A   Scattered Clouds
2:35 PM 59.0 °F - 33.8 °F 39% 29.99 in 10.0 mi ENE 5.8 mph - N/A   Scattered Clouds
2:55 PM 59.0 °F - 33.8 °F 39% 29.99 in 10.0 mi Calm Calm - N/A   Clear
3:15 PM 60.8 °F - 32.0 °F 34% 29.98 in 10.0 mi Calm Calm - N/A   Scattered Clouds
3:35 PM 60.8 °F - 32.0 °F 34% 29.98 in 10.0 mi Calm Calm - N/A   Scattered Clouds
3:55 PM 60.8 °F - 32.0 °F 34% 29.97 in 10.0 mi NNW 4.6 mph - N/A   Clear
4:15 PM 60.8 °F - 32.0 °F 34% 29.96 in 10.0 mi West 3.5 mph - N/A   Scattered Clouds
4:35 PM 60.8 °F - 32.0 °F 34% 29.96 in 10.0 mi Calm Calm - N/A   Scattered Clouds
4:55 PM 62.6 °F - 32.0 °F 32% 29.96 in 10.0 mi Calm Calm - N/A   Clear
5:15 PM 62.6 °F - 30.2 °F 30% 29.96 in 10.0 mi Calm Calm - N/A   Clear
5:35 PM 64.4 °F - 32.0 °F 30% 29.96 in 10.0 mi WSW 3.5 mph - N/A   Clear
5:55 PM 64.4 °F - 30.2 °F 28% 29.96 in 10.0 mi Calm Calm - N/A   Clear
6:15 PM 64.4 °F - 30.2 °F 28% 29.96 in 10.0 mi South 4.6 mph - N/A   Clear
6:35 PM 64.4 °F - 30.2 °F 28% 29.96 in 10.0 mi Calm Calm - N/A   Clear
6:55 PM 62.6 °F - 30.2 °F 30% 29.96 in 10.0 mi SSE 4.6 mph - N/A   Clear
7:15 PM 62.6 °F - 32.0 °F 32% 29.96 in 10.0 mi Calm Calm - N/A   Clear
7:35 PM 62.6 °F - 32.0 °F 32% 29.97 in 10.0 mi Calm Calm - N/A   Clear
7:55 PM 60.8 °F - 33.8 °F 36% 29.98 in 10.0 mi Calm Calm - N/A   Clear
8:15 PM 60.8 °F - 32.0 °F 34% 29.99 in 10.0 mi Calm Calm - N/A   Clear
8:35 PM 60.8 °F - 32.0 °F 34% 30.00 in 10.0 mi WSW 3.5 mph - N/A   Clear
8:55 PM 55.4 °F - 35.6 °F 47% 30.01 in 10.0 mi Calm Calm - N/A   Clear
9:15 PM 55.4 °F - 33.8 °F 44% 30.02 in 10.0 mi Calm Calm - N/A   Clear
9:35 PM 53.6 °F - 32.0 °F 44% 30.02 in 10.0 mi Calm Calm - N/A   Clear
9:55 PM 55.4 °F - 26.6 °F 33% 30.03 in 10.0 mi Calm Calm - N/A   Clear
10:15 PM 53.6 °F - 26.6 °F 35% 30.03 in 10.0 mi Calm Calm - N/A   Clear
10:35 PM 53.6 °F - 24.8 °F 33% 30.03 in 10.0 mi Calm Calm - N/A   Clear
10:55 PM 53.6 °F - 24.8 °F 33% 30.04 in 10.0 mi Calm Calm - N/A   Clear
11:15 PM 51.8 °F - 26.6 °F 38% 30.04 in 10.0 mi Calm Calm - N/A   Clear
11:55 PM 51.8 °F - 26.6 °F 38% 30.06 in 10.0 mi Calm Calm - N/A   Clear